N2ADK Weather Reports


time (UTC)temp
C
wind
direction
speed
KPH
gust
KPH
rain 1hr
cm
rain 24hr
cm
rain mn
cm
humidity
%
barometer
mb
20260505073036 15 0 0.0 0.0 0.00 0.00 0.00 76 1005.1
20260505072517 15 0 0.0 0.0 0.00 0.00 0.00 76 1005.3
20260505072018 16 0 0.0 0.0 0.00 0.00 0.00 75 1005.1
20260505071544 16 0 0.0 0.0 0.00 0.00 0.00 73 1005.1
20260505071018 16 0 0.0 0.0 0.00 0.00 0.00 70 1004.8
20260505070518 16 0 0.0 0.0 0.00 0.00 0.00 68 1004.9
20260505070047 15 0 0.0 0.0 0.00 0.00 0.00 67 1005.0
20260505065520 15 0 0.0 0.0 0.00 0.00 0.00 66 1005.2
20260505065018 15 0 0.0 0.0 0.00 0.00 0.00 66 1005.1
20260505064534 15 0 0.0 0.0 0.00 0.00 0.00 66 1004.9
20260505064018 15 0 0.0 0.0 0.00 0.00 0.00 65 1004.9
20260505063518 15 0 0.0 0.0 0.00 0.00 0.00 66 1004.9
20260505063040 16 0 0.0 0.0 0.00 0.00 0.00 67 1004.9
20260505062520 16 0 0.0 0.0 0.00 0.00 0.00 66 1004.8
20260505062020 15 0 0.0 0.0 0.00 0.00 0.00 66 1004.8
20260505061537 16 0 0.0 0.0 0.00 0.00 0.00 67 1004.8
20260505061018 16 0 0.0 0.0 0.00 0.00 0.00 65 1004.7
20260505060518 16 0 0.0 0.0 0.00 0.00 0.00 64 1004.6
20260505060038 16 0 0.0 0.0 0.00 0.00 0.00 65 1004.5
20260505055518 16 0 0.0 0.0 0.00 0.00 0.00 64 1004.7
20260505055018 16 0 0.0 0.0 0.00 0.00 0.00 62 1004.7
20260505054536 16 0 0.0 0.0 0.00 0.00 0.00 64 1004.7
20260505054018 16 0 0.0 0.0 0.00 0.00 0.00 63 1004.8
20260505053517 16 0 0.0 0.0 0.00 0.00 0.00 64 1004.9
20260505053035 16 0 0.0 0.0 0.00 0.00 0.00 64 1004.9
20260505052518 15 0 0.0 0.0 0.00 0.00 0.00 65 1004.8
20260505052017 15 0 0.0 0.0 0.00 0.00 0.00 66 1005.0
20260505051532 15 0 0.0 0.0 0.00 0.00 0.00 66 1004.9
20260505051019 15 0 0.0 0.0 0.00 0.00 0.00 68 1005.1
20260505050518 14 0 0.0 0.0 0.00 0.00 0.00 68 1005.0
20260505041530 13 0 0.0 0.0 0.00 0.00 0.00 68 1004.8
20260505041018 13 0 0.0 0.0 0.00 0.00 0.00 72 1004.8
20260505040518 13 0 0.0 0.0 0.00 0.00 0.00 71 1004.9
20260505040036 13 0 0.0 0.0 0.00 0.00 0.00 71 1004.9
20260505035517 12 0 0.0 0.0 0.00 0.00 0.00 73 1004.8
20260505035018 12 0 0.0 0.0 0.00 0.00 0.00 74 1004.9
20260505034538 12 0 0.0 0.0 0.00 0.00 0.00 75 1004.9
20260505034018 12 0 0.0 0.0 0.00 0.00 0.00 74 1004.9
20260505033519 12 0 0.0 0.0 0.00 0.00 0.00 75 1004.7
20260505033038 12 0 0.0 0.0 0.00 0.00 0.00 74 1004.6
20260505032519 12 0 0.0 0.0 0.00 0.00 0.00 76 1004.8
20260505032017 12 0 0.0 0.0 0.00 0.00 0.00 76 1004.8
20260505031543 12 0 0.0 0.0 0.00 0.00 0.00 77 1004.8
20260505031019 12 0 0.0 0.0 0.00 0.00 0.00 77 1004.8
20260505030519 11 0 0.0 0.0 0.00 0.00 0.00 81 1004.8
20260505030032 11 0 0.0 0.0 0.00 0.00 0.00 82 1004.9
20260505025518 11 0 0.0 0.0 0.00 0.03 0.00 83 1004.9
20260505025018 11 0 0.0 0.0 0.00 0.03 0.00 83 1004.9
20260505024545 11 0 0.0 0.0 0.00 0.03 0.00 84 1004.9
20260505024017 11 0 0.0 0.0 0.00 0.03 0.00 84 1004.9
20260505023518 11 0 0.0 0.0 0.00 0.03 0.00 85 1005.0
20260505023041 11 0 0.0 0.0 0.00 0.03 0.00 86 1005.0
20260505022518 10 0 0.0 0.0 0.00 0.03 0.00 88 1005.0
20260505022018 10 0 0.0 0.0 0.00 0.03 0.00 88 1005.1
20260505021533 10 0 0.0 0.0 0.00 0.03 0.00 88 1005.2
20260505021016 10 0 0.0 0.0 0.00 0.03 0.00 87 1005.0
20260505020518 10 0 0.0 0.0 0.00 0.03 0.00 87 1005.1
20260505020032 10 0 0.0 0.0 0.00 0.03 0.00 87 1005.1
20260505015518 10 0 0.0 0.0 0.00 0.03 0.00 87 1005.1
20260505015018 10 0 0.0 0.0 0.00 0.03 0.00 87 1005.2
20260505014559 10 0 0.0 0.0 0.00 0.03 0.00 85 1005.2
20260505014018 10 0 0.0 0.0 0.00 0.03 0.00 85 1005.1
20260505013517 10 0 0.0 0.0 0.00 0.03 0.00 85 1005.1
20260505013029 10 0 0.0 0.0 0.00 0.03 0.00 85 1005.1
20260505012517 10 0 0.0 0.0 0.00 0.03 0.00 84 1005.2
20260505012017 11 0 0.0 0.0 0.00 0.03 0.00 85 1005.2
20260505011536 11 0 0.0 0.0 0.00 0.03 0.00 85 1005.3
20260505011017 11 0 0.0 0.0 0.00 0.03 0.00 84 1005.1
20260505010518 11 0 0.0 0.0 0.00 0.03 0.00 82 1005.1
20260505010033 11 0 0.0 0.0 0.00 0.03 0.00 82 1005.1
20260505005518 11 0 0.0 0.0 0.00 0.03 0.00 82 1005.0
20260505005017 12 0 0.0 0.0 0.00 0.03 0.00 81 1005.0
20260505004530 12 0 0.0 0.0 0.00 0.03 0.00 82 1004.9
20260505004017 12 0 0.0 0.0 0.00 0.03 0.00 81 1004.8
20260505003517 12 0 0.0 0.0 0.00 0.03 0.00 78 1004.8
20260505003032 13 0 0.0 0.0 0.00 0.03 0.00 77 1004.8
20260505002517 13 0 0.0 0.0 0.00 0.03 0.00 76 1004.7
20260505002017 13 0 0.0 0.0 0.00 0.03 0.00 76 1004.7
20260505001534 14 0 0.0 0.0 0.00 0.03 0.00 76 1004.7
20260505001017 15 0 0.0 0.0 0.00 0.03 0.00 72 1004.6
20260505000517 15 0 0.0 0.0 0.00 0.03 0.00 68 1004.6
20260505000035 15 0 0.0 0.0 0.00 0.03 0.00 68 1004.5
20260504235517 16 0 0.0 0.0 0.00 0.03 0.00 64 1004.5
20260504235017 17 0 0.0 0.0 0.00 0.03 0.00 63 1004.4
20260504234533 18 0 0.0 0.0 0.00 0.03 0.00 59 1004.4
20260504234018 18 0 0.0 0.0 0.00 0.03 0.00 57 1004.2
20260504233518 19 0 0.0 0.0 0.00 0.03 0.00 54 1004.3
20260504233032 20 0 0.0 0.0 0.00 0.03 0.00 52 1004.3
20260504232518 20 0 0.0 0.0 0.00 0.03 0.00 54 1004.2
20260504232017 20 0 0.0 0.0 0.00 0.03 0.00 46 1004.4
20260504231532 20 0 0.0 0.0 0.00 0.03 0.00 46 1004.3
20260504231017 21 0 0.0 0.0 0.00 0.03 0.00 44 1004.4
20260504230517 21 0 0.0 0.0 0.00 0.03 0.00 45 1004.4
20260504230030 21 0 0.0 0.0 0.00 0.03 0.00 43 1004.4
20260504225518 21 0 0.0 0.0 0.00 0.03 0.00 40 1004.3
20260504225017 22 0 0.0 0.0 0.00 0.03 0.00 40 1004.4
20260504224536 22 0 0.0 0.0 0.00 0.03 0.00 38 1004.4
20260504224017 22 0 0.0 0.0 0.00 0.03 0.00 38 1004.4
20260504223518 22 0 0.0 0.0 0.00 0.03 0.00 38 1004.4
20260504223034 22 0 0.0 0.0 0.00 0.03 0.00 40 1004.5
20260504222517 22 0 0.0 0.0 0.00 0.03 0.00 42 1004.3
20260504222019 22 0 0.0 0.0 0.00 0.03 0.00 40 1004.3
20260504221532 22 0 0.0 0.0 0.00 0.03 0.00 38 1004.2
20260504221019 22 0 0.0 0.0 0.00 0.03 0.00 39 1004.4
20260504220521 22 0 0.0 0.0 0.00 0.03 0.00 41 1004.3
20260504220033 21 0 0.0 0.0 0.00 0.03 0.00 41 1004.3
20260504215518 21 0 0.0 0.0 0.00 0.03 0.00 44 1004.5
20260504215017 21 0 0.0 0.0 0.00 0.03 0.00 44 1004.5
20260504214532 21 0 0.0 0.0 0.00 0.03 0.00 45 1004.5
20260504214017 21 0 0.0 0.0 0.00 0.03 0.00 43 1004.5
20260504213517 21 0 0.0 0.0 0.00 0.03 0.00 45 1004.5
20260504213035 20 0 0.0 0.0 0.00 0.03 0.00 45 1004.4
20260504212517 21 0 0.0 0.0 0.00 0.03 0.00 51 1004.4
20260504212022 21 0 0.0 0.0 0.00 0.03 0.00 46 1004.4
20260504211535 21 0 0.0 0.0 0.00 0.03 0.00 46 1004.4
20260504211017 21 0 0.0 0.0 0.00 0.03 0.00 42 1004.4
20260504210517 21 0 0.0 0.0 0.00 0.03 0.00 44 1004.5
20260504210044 21 0 0.0 0.0 0.00 0.03 0.00 45 1004.5
20260504205518 21 0 0.0 0.0 0.00 0.03 0.00 46 1004.6
20260504205020 21 0 0.0 0.0 0.00 0.03 0.00 43 1004.6
20260504204546 21 0 0.0 0.0 0.00 0.03 0.00 44 1004.7
20260504204017 21 0 0.0 0.0 0.00 0.03 0.00 45 1004.8
20260504203517 21 0 0.0 0.0 0.00 0.03 0.00 47 1004.9
20260504203031 21 0 0.0 0.0 0.00 0.03 0.00 42 1004.9
20260504202518 21 0 0.0 0.0 0.00 0.03 0.00 45 1004.9
20260504202017 21 0 0.0 0.0 0.00 0.03 0.00 41 1004.9
20260504201539 22 0 0.0 0.0 0.00 0.03 0.00 42 1005.0
20260504201017 22 0 0.0 0.0 0.00 0.03 0.00 46 1005.1
20260504200517 22 0 0.0 0.0 0.00 0.03 0.00 43 1005.2
20260504200029 22 0 0.0 0.0 0.00 0.03 0.00 47 1005.1
20260504195517 21 0 0.0 0.0 0.00 0.03 0.00 49 1005.2
20260504195017 21 0 0.0 0.0 0.00 0.03 0.00 48 1005.3
20260504194532 22 0 0.0 0.0 0.00 0.03 0.00 44 1005.3
20260504194014 22 0 0.0 0.0 0.00 0.03 0.00 43 1005.3
20260504193519 22 0 0.0 0.0 0.00 0.03 0.00 47 1005.3
20260504193032 22 0 0.0 0.0 0.00 0.03 0.00 49 1005.5
20260504192517 22 0 0.0 0.0 0.00 0.03 0.00 45 1005.6
20260504192017 22 0 0.0 0.0 0.00 0.03 0.00 47 1005.6
20260504191531 21 0 0.0 0.0 0.00 0.03 0.00 44 1005.6
20260504191019 21 0 0.0 0.0 0.00 0.03 0.00 48 1005.9
20260504190517 21 0 0.0 0.0 0.00 0.03 0.00 44 1005.9
20260504190031 21 0 0.0 0.0 0.00 0.03 0.00 43 1005.9
20260504185517 22 0 0.0 0.0 0.00 0.03 0.00 48 1006.0
20260504185018 22 0 0.0 0.0 0.00 0.03 0.00 45 1005.9
20260504184556 22 0 0.0 0.0 0.00 0.03 0.00 48 1006.0
20260504184019 22 0 0.0 0.0 0.00 0.03 0.00 48 1005.9
20260504183517 21 0 0.0 0.0 0.00 0.03 0.00 47 1005.9
20260504183033 21 0 0.0 0.0 0.00 0.03 0.00 47 1006.0
20260504182518 20 0 0.0 0.0 0.00 0.03 0.00 47 1006.1
20260504182015 21 0 0.0 0.0 0.00 0.03 0.00 49 1006.1
20260504181530 20 0 0.0 0.0 0.00 0.03 0.00 46 1006.1
20260504181020 20 0 0.0 0.0 0.00 0.03 0.00 48 1006.1
20260504180518 20 0 0.0 0.0 0.00 0.03 0.00 46 1006.1
20260504180032 21 0 0.0 0.0 0.00 0.03 0.00 51 1006.1
20260504175517 21 0 0.0 0.0 0.00 0.03 0.00 49 1006.1
20260504175017 21 0 0.0 0.0 0.00 0.03 0.00 46 1006.1
20260504174530 20 0 0.0 0.0 0.00 0.03 0.00 50 1006.1
20260504174017 19 0 0.0 0.0 0.00 0.03 0.00 52 1006.1
20260504173516 20 0 0.0 0.0 0.00 0.03 0.00 47 1006.2
20260504173036 20 0 0.0 0.0 0.00 0.03 0.00 49 1006.2
20260504172517 20 0 0.0 0.0 0.00 0.03 0.00 51 1006.1
20260504172018 20 0 0.0 0.0 0.00 0.03 0.00 52 1006.3
20260504171535 20 0 0.0 0.0 0.00 0.03 0.00 49 1006.2
20260504171024 20 0 0.0 0.0 0.00 0.03 0.00 49 1006.2
20260504170517 20 0 0.0 0.0 0.00 0.03 0.00 51 1006.4
20260504151017 17 0 0.0 0.0 0.00 0.03 0.00 53 1007.5
20260504150515 16 0 0.0 0.0 0.00 0.03 0.00 52 1007.6
20260504141017 15 0 0.0 0.0 0.00 0.03 0.00 55 1007.8
20260504140517 15 0 0.0 0.0 0.00 0.03 0.00 58 1007.8
20260504130521 12 0 0.0 0.0 0.00 0.03 0.00 62 1008.4
20260504110518 8 0 0.0 0.0 0.00 0.03 0.00 71 1008.9
20260504100517 7 0 0.0 0.0 0.00 0.03 0.00 80 1008.8
20260504081535 5 0 0.0 0.0 0.00 0.03 0.00 91 1008.9
20260504081017 5 0 0.0 0.0 0.00 0.03 0.00 91 1008.9
20260504080518 5 0 0.0 0.0 0.00 0.03 0.00 91 1008.9